STARLINK-3145, 49455

Orbit data source: Space-Track

STARLINK-3145, 49455 is a payload satellite owned by SpaceX/Seattle (US) in LEO that was launched on Sat, 13 Nov 2021 UTC via an FALCON 9 launch vehicle from the Air Force Eastern Test Range (AFETR). Payload-class satellites include a variety of spacecraft equipped with specific instruments for various scientific and technological missions. These include communications satellites like Starlink; space stations such as the ISS; scientific satellites like the Hubble; Earth observation satellites from companies like Planet Labs, Umbra, and HawkEye 360; GPS; miniature CubeSats for education and research; and military/defense satellites.

Loading next visibility...
Identifier
49455, 2021-104AZ
Orbit
LEO
Country
Flag of USUS
Related business
Manufacturer
SpaceX/Seattle
Mission
Operational Commercial Communications
Bus & Motor
STARLINK, Unknown motor
Mass
290 kg wet, ~270 kg dry
Launch date (UTC)
2021-11-13 (5 years ago)
Launch vehicle
FALCON 9
Launch site
Air Force Eastern Test Range (AFETR)
Object type
Payload
Rocket body
Debris
Shape & HBR
Box + 1 Pan, 10.1 m
Radar Cross Section
13.562 m², Large (>1 m²)

Expand to show TLE details & history
Last TLE update: 3 days ago

TLE from 3 days ago
0 STARLINK-3145
1 49455U 21104AZ  26170.86976078  .00000769  00000-0  66381-4 0  9992
2 49455  53.1601 120.3050 0001369  97.7347 262.3800 15.08847186254204
Epoch: 2026-06-19T20:52Z
TLE epoch observation values (Epoch: 2026-06-19T20:52:27.331Z)
Latitude
-0.00001°
Longitude
-100.90143°
Altitude
540.738 km
Speed
7.593 km/s
True Right ascension
08h 01m 13s
True Declination
0° 00' 00"
Sunlit
Object was in daylight at epoch
Visualization orbit readout
Latitude
Unknown
Longitude
Unknown
Altitude
Unknown
Speed
Unknown
Apparent Right ascension
Unknown
Apparent Declination
Unknown
Sunlit
N/A
Visualization observer readout
Local Sidereal Time
21:26:06
Azimuth
Unknown
Elevation
Unknown
Doppler factor
Unknown
Orbital elements
Apogee altitude
540.923 km
Perigee altitude
539.028 km
Semi-major axis
6,918.113 km
Eccentricity
0.00014
Inclination
53.1601°
RAAN
120.305°
Arg. of periapsis
97.7347°
True anomaly
262.36445°
Mean anomaly
262.38°
Eccentric anomaly
262.37223°
Mean motion
3.77191 °/min
Orbital period
95.44 mins
BSTAR
0.000066381
Loading maneuver chart data...
Computing Atmospheric mass density...
Loading historical data...
Loading historical data...
Loading historical data...
Loading historical data...
Loading historical data...
Loading historical data...
Loading historical data...

Documentation

Showing up to 5 results
|